Miscellaneous Local Product
Issued by NWS Hastings, NE

Home | Current Version | Previous Version | Graphics & Text | Print | Product List | Glossary On
Versions: 1 2 3 4 5 6 7 8 9 10 11 12 13 14 15 16 17 18 19 20 21 22 23 24 25 26 27 28 29 30 31 32 33 34 35 36 37 38 39 40 41 42 43 44 45 46 47 48 49 50
000
AXUS43 KGID 280202
MISGRI

GID CWA HOURLY WEATHER ROUNDUP
NATIONAL WEATHER SERVICE HASTINGS NE
800 PM CST THU NOV 27 2014

NOTE: "FAIR" INDICATES FEW OR NO CLOUDS BELOW 12,000 FEET WITH NO
SIGNIFICANT WEATHER AND/OR OBSTRUCTIONS TO VISIBILITY.

...SOUTH CENTRAL NEBRASKA...

CITY           SKY/WX    TMP DP  RH WIND       PRES   REMARKS
GRAND ISLAND   PTCLDY    32  17  54 SE9       30.11F WCI  24
HASTINGS       PTCLDY    32  17  54 S14       30.08F WCI  22
KEARNEY        CLEAR     28  16  59 SE7       30.07F WCI  21
ORD            CLEAR     30  18  60 SE9       30.06F WCI  22
YORK           CLEAR     30  19  64 SE12      30.14F WCI  21
AURORA         PTCLDY    30  18  60 SE10      30.11F WCI  21
LEXINGTON      CLEAR     35  22  57 SE7       30.04F WCI  29
HOLDREGE       CLEAR     36  20  53 S12       30.05S WCI  27
HEBRON         CLEAR     31  16  53 SE8       30.17F WCI  23

...NEBRASKA PANHANDLE...

CITY           SKY/WX    TMP DP  RH WIND       PRES   REMARKS
CHADRON        CLEAR    N/A N/A N/A CALM      29.95R
ALLIANCE       CLEAR     32  23  69 W9        29.97R WCI  24
SCOTTSBLUFF    CLEAR     41  29  62 NW8       29.99S
SIDNEY         CLEAR     43  28  55 W12       30.03F

...WESTERN AND NORTH CENTRAL NEBRASKA...

CITY           SKY/WX    TMP DP  RH WIND       PRES   REMARKS
VALENTINE      CLEAR     41  25  53 SW16      29.92F
AINSWORTH      CLEAR     36  22  57 S16       29.94F WCI  26
ONEILL         CLEAR     30  19  65 S15       30.04F WCI  19
BROKEN BOW     CLEAR     31  19  61 SE6       30.03F WCI  25
IMPERIAL       CLEAR     40  26  57 W9        30.01S WCI  34
NORTH PLATTE   CLEAR     32  21  64 E6        30.00F WCI  26
MCCOOK         CLEAR     43  26  51 S7        30.00F

...EASTERN NEBRASKA...

CITY           SKY/WX    TMP DP  RH WIND       PRES   REMARKS
NORFOLK        PTCLDY    21  13  71 SE14      30.12F WCI   8
SO SIOUX CITY  MOCLDY    19   9  65 SE9       30.23F WCI   8
COLUMBUS       CLEAR     23  12  63 E10       30.17F WCI  12
ALBION         CLEAR     27  17  64 SE10      30.11F WCI  17
OMAHA EPPLEY   PTCLDY    22  14  71 SE16      30.26F WCI   8
OFFUTT AFB     PTCLDY    22  14  71 SE10      30.25F WCI  12
MILLARD        PTCLDY    24  15  67 SE8       30.26F WCI  15
LINCOLN        CLEAR     27  14  58 SE12      30.21F WCI  17
NEBRASKA CITY  CLEAR     25  13  62 SE10      30.27F WCI  15
BEATRICE       CLEAR     31  19  62 SE10      30.20F WCI  22
FALLS CITY     CLEAR     26  18  71 SE9       30.28F WCI  17

...NORTHERN KANSAS...

CITY           SKY/WX    TMP DP  RH WIND       PRES   REMARKS
GOODLAND       MOCLDY    51  27  39 SW16      30.07R
HILL CITY      CLEAR     43  24  47 S7        30.07F
NORTON         CLEAR     39  19  45 S10       30.03F WCI  32
PHILLIPSBURG   CLEAR     34  21  60 E8        30.08F WCI  27
SMITH CENTER   CLEAR     34  19  55 SE15      30.11F WCI  24
BELOIT         CLEAR     36  18  48 SE12      30.14F WCI  27
HAYS           PTCLDY    37  19  48 SE12      30.10F WCI  30
RUSSELL        PTCLDY    38  21  50 S20       30.08F WCI  28
CONCORDIA      CLEAR     36  17  46 S15       30.16F WCI  27
SALINA         CLEAR     37  18  46 SE14      30.19F WCI  28
TOPEKA         CLEAR     31  20  63 SE6       30.31F WCI  25



USA.gov is the U.S. government's official web portal to all federal, state and local government web resources and services.